DECAYED

YUNHAI 1-02 DEB, 48189 (Decayed)

Orbit data source: Space-Track

YUNHAI 1-02 DEB, 48189 was space debris in SSO originally from a launch on Wed, 25 Sep 2019 UTC launched from the Jiuquan Satellite Launch Center, China (JSC). Debris objects in space refer to the collection of defunct objects orbiting the Earth. Examples of debris include non-operational satellites, rocket bodies, and fragments generated from explosions, collisions, or faulty payload assembly.

Not visible in the next 10 days
Identifier
48189, 2019-063H
Orbit
Decayed
Country
Flag of CNCN / PRC
Related business
Manufacturer
Unknown
Mission
Decayed spacecraft
Bus & Motor
Unknown
Mass
Unknown
Launch date (UTC)
2019-09-25 (7 years ago)
Launch vehicle
Unknown
Launch site
Jiuquan Satellite Launch Center, China (JSC)
Object type
Payload
Rocket body
Debris
Shape & HBR
Unknown shape, 0.1 m
Radar Cross Section
Medium (>0.1 m² and <1 m²)

Expand to show TLE details & history
Last TLE update: 11 months ago

TLE from 11 months ago
0 YUNHAI 1-02 DEB
1 48189U 19063H   25218.58190195  .04557826  00000-0  24375-1 0  9994
2 48189  98.4183 270.1799 0023866 243.1290 116.7533 15.76240239231524
Epoch: 2025-08-06T13:57Z
TLE epoch observation values (Epoch: 2025-08-06T13:57:56.328Z)
Latitude
Longitude
105.3366°
Altitude
351.49 km
Speed
7.694 km/s
True Right ascension
18h 00m 43s
True Declination
0° 00' 00"
Sunlit
Object was in full shadow at epoch
Visualization orbit readout
Latitude
Unknown
Longitude
Unknown
Altitude
Unknown
Speed
Unknown
Apparent Right ascension
Unknown
Apparent Declination
Unknown
Sunlit
N/A
Visualization observer readout
Local Sidereal Time
21:26:51
Azimuth
Unknown
Elevation
Unknown
Doppler factor
Unknown
Orbital elements
Apogee altitude
354.072 km
Perigee altitude
322.014 km
Semi-major axis
6,716.18 km
Eccentricity
0.00239
Inclination
98.4183°
RAAN
270.1799°
Arg. of periapsis
243.129°
True anomaly
116.99718°
Mean anomaly
116.7533°
Eccentric anomaly
116.87527°
Mean motion
3.9433 °/min
Orbital period
91.29 mins
BSTAR
0.024375

Documentation

Showing up to 5 results
|